Location: Wharf Road Observatory
(44.7802°N, 65.6070°W)
Time: 03:05:52
(UTC-03:00)

N. Korean satellite - Visible Passes

Search period start: 28 September 2022 00:00
Search period end: 08 October 2022 00:00
Orbit: 427 x 468 km, 97.3° (Epoch: 27 September)

Date Brightness Start Highest point End Pass type
(mag) Time Alt. Az. Time Alt. Az. Time Alt. Az.
29 Sep 8.4 06:11:58 10° NNE 06:14:55 30° E 06:17:51 10° SSE visible
30 Sep 9.9 05:37:55 10° ENE 05:38:56 11° E 05:39:58 10° ESE visible
01 Oct 6.9 06:32:54 10° NNE 06:36:09 61° E 06:39:22 10° S visible
02 Oct 9.3 05:57:42 10° NE 06:00:12 20° E 06:02:42 10° SE visible
04 Oct 8.0 06:18:10 10° NNE 06:21:15 37° E 06:24:18 10° SSE visible
05 Oct 9.7 05:43:27 10° ENE 05:45:07 13° E 05:46:47 10° ESE visible
06 Oct 6.5 06:38:47 10° NNE 06:42:04 75° ESE 06:45:20 10° S visible
07 Oct 9.0 06:03:16 10° NE 06:05:59 23° E 06:08:40 10° SSE visible
